• In Uzbekistan
  • List of Countries
  • For 7 days
  • Water Temperature
  • Satellite Maps
  • Weather Map
  • Weather Widgets
  • user-avatar
    Login

    Hourly Weather Gold Coast

    Today, 21 August, Tuesday

    Time Temperature Precipitation Wind Pressure Humidity
    00:00 +8°C° 0 mm 3 mps 760 mmHg 42%
    01:00 +8°C° 0 mm 3 mps 760 mmHg 42%
    02:00 +8°C° 0 mm 3 mps 760 mmHg 42%
    03:00 +7°C° 0 mm 3 mps 760 mmHg 42%
    04:00 +7°C° 0 mm 3 mps 759 mmHg 43%
    05:00 +7°C° 0 mm 3 mps 760 mmHg 43%
    06:00 +7°C° 0 mm 3 mps 760 mmHg 43%
    07:00 +7°C° 0 mm 3 mps 760 mmHg 44%
    08:00 +11°C° 0 mm 3 mps 759 mmHg 36%
    09:00 +14°C° 0 mm 3 mps 759 mmHg 29%
    10:00 +21°C° 0 mm 1 mps 759 mmHg 17%
    11:00 +21°C° 0 mm 2 mps 758 mmHg 16%
    12:00 +23°C° 0 mm 2 mps 758 mmHg 15%
    13:00 +24°C° 0 mm 2 mps 757 mmHg 13%
    14:00 +24°C° 0 mm 3 mps 757 mmHg 15%
    15:00 +24°C° 0 mm 3 mps 756 mmHg 18%
    16:00 +22°C° 0 mm 4 mps 756 mmHg 20%
    17:00 +20°C° 0 mm 4 mps 756 mmHg 25%
    18:00 +17°C° 0 mm 4 mps 757 mmHg 30%
    19:00 +14°C° 0 mm 4 mps 757 mmHg 35%
    20:00 +13°C° 0 mm 4 mps 757 mmHg 38%
    21:00 +12°C° 0 mm 5 mps 758 mmHg 41%
    22:00 +10°C° 0 mm 5 mps 758 mmHg 44%
    23:00 +9°C° 0 mm 5 mps 758 mmHg 46%

    Tomorrow, 22 August, Wednesday

    Time Temperature Precipitation Wind Pressure Humidity
    00:00 +9°C° 0 mm 5 mps 758 mmHg 49%
    01:00 +8°C° 0 mm 5 mps 758 mmHg 51%
    02:00 +8°C° 0 mm 4 mps 758 mmHg 53%
    03:00 +7°C° 0 mm 4 mps 758 mmHg 54%
    04:00 +7°C° 0 mm 4 mps 758 mmHg 56%
    05:00 +7°C° 0 mm 4 mps 758 mmHg 56%
    06:00 +7°C° 0 mm 4 mps 758 mmHg 56%
    07:00 +7°C° 0 mm 4 mps 759 mmHg 55%
    08:00 +11°C° 0 mm 3 mps 759 mmHg 47%
    09:00 +16°C° 0 mm 3 mps 759 mmHg 38%
    10:00 +19°C° 0 mm 3 mps 759 mmHg 29%
    11:00 +20°C° 0 mm 3 mps 758 mmHg 26%
    12:00 +23°C° 0 mm 2 mps 758 mmHg 23%
    13:00 +24°C° 0 mm 2 mps 757 mmHg 19%
    14:00 +24°C° 0 mm 2 mps 757 mmHg 21%
    15:00 +24°C° 0 mm 3 mps 756 mmHg 22%
    16:00 +22°C° 0 mm 4 mps 756 mmHg 23%
    17:00 +20°C° 0 mm 3 mps 757 mmHg 31%
    18:00 +17°C° 0 mm 3 mps 757 mmHg 40%
    19:00 +14°C° 0 mm 2 mps 758 mmHg 48%
    20:00 +13°C° 0 mm 2 mps 759 mmHg 53%
    21:00 +12°C° 0 mm 1 mps 759 mmHg 58%
    22:00 +11°C° 0 mm 1 mps 760 mmHg 63%
    23:00 +11°C° 0 mm 1 mps 760 mmHg 65%

    Day after tomorrow, 23 August, Thursday

    Time Temperature Precipitation Wind Pressure Humidity
    00:00 +11°C° 0 mm 1 mps 760 mmHg 66%
    01:00 +9°C° 0 mm 2 mps 760 mmHg 68%
    02:00 +9°C° 0 mm 2 mps 760 mmHg 68%
    03:00 +8°C° 0 mm 2 mps 759 mmHg 69%
    04:00 +8°C° 0 mm 2 mps 759 mmHg 69%
    05:00 +8°C° 0 mm 2 mps 760 mmHg 70%
    06:00 +9°C° 0 mm 2 mps 760 mmHg 71%
    07:00 +9°C° 0 mm 2 mps 761 mmHg 73%
    08:00 +13°C° 0 mm 2 mps 761 mmHg 65%
    09:00 +17°C° 0 mm 2 mps 761 mmHg 57%
    10:00 +20°C° 0 mm 2 mps 761 mmHg 49%
    11:00 +21°C° 0 mm 2 mps 760 mmHg 46%
    12:00 +21°C° 0 mm 3 mps 760 mmHg 43%
    13:00 +22°C° 0 mm 3 mps 759 mmHg 40%
    14:00 +21°C° 0.1 mm 3 mps 759 mmHg 45%
    15:00 +21°C° 0.1 mm 3 mps 759 mmHg 49%
    16:00 +20°C° 0.1 mm 4 mps 758 mmHg 54%
    17:00 +18°C° 0 mm 4 mps 759 mmHg 64%
    18:00 +15°C° 0 mm 4 mps 760 mmHg 75%
    19:00 +13°C° 0 mm 3 mps 760 mmHg 86%
    20:00 +13°C° 0 mm 3 mps 761 mmHg 86%
    21:00 +13°C° 0 mm 3 mps 761 mmHg 87%
    22:00 +13°C° 0 mm 2 mps 762 mmHg 88%
    23:00 +13°C° 0 mm 2 mps 761 mmHg 89%

    24 August, Friday

    Time Temperature Precipitation Wind Pressure Humidity
    00:00 +13°C° 0 mm 2 mps 761 mmHg 90%
    01:00 +12°C° 0 mm 2 mps 761 mmHg 91%
    02:00 +12°C° 0 mm 2 mps 761 mmHg 92%
    03:00 +12°C° 0 mm 2 mps 761 mmHg 92%
    04:00 +12°C° 0 mm 2 mps 761 mmHg 93%
    05:00 +12°C° 0 mm 2 mps 761 mmHg 92%
    06:00 +13°C° 0 mm 2 mps 762 mmHg 91%
    07:00 +13°C° 0 mm 2 mps 762 mmHg 91%
    08:00 +16°C° 0 mm 2 mps 762 mmHg 78%
    09:00 +18°C° 0 mm 2 mps 762 mmHg 66%
    10:00 +21°C° 0 mm 3 mps 762 mmHg 54%
    11:00 +21°C° 0.2 mm 3 mps 762 mmHg 56%
    12:00 +21°C° 0.2 mm 3 mps 761 mmHg 58%
    13:00 +21°C° 0.2 mm 3 mps 760 mmHg 60%
    14:00 +21°C° 0.2 mm 3 mps 760 mmHg 62%
    15:00 +20°C° 0.2 mm 4 mps 760 mmHg 64%
    16:00 +20°C° 0.2 mm 4 mps 760 mmHg 66%
    17:00 +19°C° 0 mm 4 mps 760 mmHg 71%
    18:00 +17°C° 0 mm 4 mps 761 mmHg 76%
    19:00 +15°C° 0 mm 4 mps 761 mmHg 81%
    20:00 +15°C° 0.2 mm 4 mps 762 mmHg 82%
    21:00 +15°C° 0.2 mm 4 mps 762 mmHg 84%
    22:00 +15°C° 0.2 mm 5 mps 762 mmHg 86%
    23:00 +15°C° 0.5 mm 5 mps 762 mmHg 87%

    25 August, Saturday

    Time Temperature Precipitation Wind Pressure Humidity
    00:00 +14°C° 0.5 mm 4 mps 762 mmHg 89%
    01:00 +14°C° 0.5 mm 4 mps 762 mmHg 90%
    02:00 +14°C° 0.4 mm 4 mps 761 mmHg 90%
    03:00 +14°C° 0.4 mm 4 mps 761 mmHg 91%
    04:00 +14°C° 0.4 mm 4 mps 761 mmHg 91%
    05:00 +14°C° 0.1 mm 4 mps 761 mmHg 91%
    06:00 +14°C° 0.1 mm 4 mps 762 mmHg 91%
    07:00 +14°C° 0.1 mm 4 mps 762 mmHg 90%
    08:00 +15°C° 0.2 mm 4 mps 762 mmHg 85%
    09:00 +18°C° 0.2 mm 4 mps 762 mmHg 80%
    10:00 +19°C° 0.2 mm 5 mps 762 mmHg 74%
    11:00 +20°C° 0.4 mm 5 mps 761 mmHg 73%
    12:00 +20°C° 0.4 mm 5 mps 761 mmHg 71%
    13:00 +20°C° 0.4 mm 5 mps 760 mmHg 69%
    14:00 +20°C° 0.4 mm 5 mps 760 mmHg 73%
    15:00 +19°C° 0.4 mm 5 mps 760 mmHg 78%
    16:00 +17°C° 0.4 mm 5 mps 759 mmHg 82%
    17:00 +16°C° 0.9 mm 5 mps 760 mmHg 85%
    18:00 +16°C° 0.9 mm 5 mps 760 mmHg 88%
    19:00 +15°C° 0.9 mm 5 mps 761 mmHg 91%
    20:00 +15°C° 1.3 mm 5 mps 761 mmHg 92%
    21:00 +15°C° 1.3 mm 5 mps 761 mmHg 93%
    22:00 +15°C° 1.3 mm 5 mps 761 mmHg 94%
    23:00 +15°C° 1.5 mm 5 mps 760 mmHg 94%

    26 August, Sunday

    Time Temperature Precipitation Wind Pressure Humidity
    00:00 +15°C° 1.5 mm 5 mps 760 mmHg 94%
    01:00 +15°C° 1.5 mm 5 mps 760 mmHg 95%
    02:00 +15°C° 1.2 mm 5 mps 759 mmHg 95%
    03:00 +15°C° 1.2 mm 5 mps 759 mmHg 95%
    04:00 +15°C° 1.2 mm 4 mps 759 mmHg 95%
    05:00 +15°C° 2.3 mm 4 mps 759 mmHg 95%
    06:00 +15°C° 2.3 mm 4 mps 760 mmHg 95%
    07:00 +15°C° 2.3 mm 4 mps 760 mmHg 96%
    08:00 +16°C° 1.3 mm 3 mps 760 mmHg 93%
    09:00 +17°C° 1.3 mm 2 mps 760 mmHg 90%
    10:00 +19°C° 1.3 mm 1 mps 760 mmHg 87%
    11:00 +21°C° 0 mm 1 mps 759 mmHg 75%
    12:00 +23°C° 0 mm 1 mps 758 mmHg 64%
    13:00 +25°C° 0 mm 1 mps 758 mmHg 52%
    14:00 +25°C° 0.1 mm 1 mps 757 mmHg 55%
    15:00 +24°C° 0.1 mm 2 mps 757 mmHg 59%
    16:00 +23°C° 0.1 mm 2 mps 757 mmHg 62%
    17:00 +20°C° 0.2 mm 2 mps 757 mmHg 71%
    18:00 +18°C° 0.2 mm 2 mps 758 mmHg 81%
    19:00 +17°C° 0.2 mm 3 mps 758 mmHg 90%
    20:00 +16°C° 0.2 mm 2 mps 759 mmHg 91%
    21:00 +16°C° 0.2 mm 2 mps 759 mmHg 91%
    22:00 +16°C° 0.2 mm 1 mps 759 mmHg 92%
    23:00 +15°C° 0.1 mm 1 mps 759 mmHg 92%
    Show more